GFSNGP_2pvu_pres_096.txt.gz
Presure
238 249 229 232 236 245 263 252 255 258 298 276 263 244 237 242 229 229 202 200 197 194 200 199 201 181 189 190 191 185 192 197 185 190 189 190 184 198 196 193 193 208 196 201
254 248 241 243 268 265 256 263 262 330 276 265 253 230 221 245 232 223 201 200 196 192 191 198 199 202 203 189 196 187 190 189 188 196 195 181 193 192 198 182 194 205 188 198
254 257 257 259 259 254 263 263 279 278 265 254 242 231 217 220 239 219 209 199 206 199 197 187 193 192 196 190 199 195 193 193 193 200 185 190 194 195 187 184 192 199 210 205
242 245 245 256 256 261 258 263 299 267 254 241 233 226 221 210 216 207 212 223 212 204 193 199 195 192 200 192 197 197 191 189 192 193 188 197 194 195 192 209 204 196 199 209
252 252 251 254 256 253 257 283 276 259 244 238 230 214 223 216 209 207 211 208 206 209 217 207 196 195 194 193 201 194 202 198 194 191 190 192 192 190 202 196 192 205 193 209
266 257 250 256 252 257 269 293 271 249 251 230 228 220 213 219 229 207 207 208 210 207 209 207 205 203 211 206 202 202 187 184 190 195 200 192 197 199 200 189 198 201 204 192
277 267 255 264 272 273 290 284 263 247 244 232 220 220 219 211 211 227 225 217 202 202 214 205 206 212 216 203 206 213 205 201 197 195 200 201 192 201 193 195 202 205 204 194
276 274 267 271 277 267 286 278 259 240 227 233 224 219 223 217 213 209 221 223 230 209 201 207 202 206 194 194 202 211 202 202 207 194 204 211 209 197 203 210 208 205 204 203
282 284 276 287 248 284 279 274 257 234 228 222 231 225 216 224 222 213 214 214 226 231 230 240 231 242 221 205 208 206 201 202 201 203 202 201 195 202 202 202 203 204 201 207
265 247 251 243 271 282 288 271 256 236 230 223 223 224 228 230 225 226 222 215 213 212 213 207 211 213 212 208 226 211 201 203 202 193 201 202 208 207 208 217 215 209 212 212
249 254 271 254 273 281 295 265 266 250 234 230 223 232 229 223 232 236 234 223 216 214 211 212 213 212 206 210 215 212 215 219 219 216 210 208 217 207 202 211 203 208 207 204
260 257 269 283 259 273 282 266 260 257 247 233 229 223 229 237 223 234 236 233 222 218 215 213 212 209 211 205 202 201 202 211 214 216 222 214 214 214 220 209 227 212 212 207
281 284 269 278 241 255 256 281 260 254 261 249 234 227 226 231 235 221 242 231 232 225 225 223 221 218 216 214 215 216 212 214 213 212 222 223 224 227 228 228 206 212 223 214
283 288 288 268 267 250 240 263 257 273 258 260 253 241 235 230 230 229 227 242 231 227 228 227 226 223 221 215 215 213 214 220 221 222 217 220 223 222 222 227 226 216 213 224
301 306 305 305 311 272 275 271 285 269 285 268 258 262 250 242 241 237 237 230 233 238 238 226 223 223 226 226 226 228 225 225 224 219 217 219 221 222 224 228 233 232 232 234
306 305 304 305 311 293 270 266 258 268 285 257 261 265 262 258 264 260 247 236 233 236 238 238 218 225 226 227 231 222 224 226 230 227 225 232 230 232 247 248 243 238 236 242
313 300 298 297 298 311 308 316 315 285 274 262 275 249 246 270 261 259 260 263 258 249 244 240 237 232 228 228 230 234 235 236 233 235 240 252 254 252 248 242 249 241 249 249
303 300 314 308 308 310 312 318 310 297 280 269 266 268 273 273 283 265 235 251 248 245 244 248 252 253 253 252 259 263 263 261 259 256 254 251 251 250 248 250 253 256 254 270
300 301 321 347 325 316 307 303 302 305 301 306 265 265 267 272 276 192 278 279 287 282 280 269 265 263 261 259 257 258 258 259 260 260 260 261 262 261 264 274 294 300 288 281
286 286 291 293 153 269 310 323 328 328 312 303 297 299 296 298 297 272 270 272 275 276 277 258 284 288 292 293 292 291 291 292 305 309 295 292 294 296 278 282 312 320 354 346
280 263 283 270 271 289 291 295 293 295 298 301 304 308 310 312 315 316 320 320 308 311 308 305 285 283 282 281 285 288 309 310 300 294 296 319 318 319 304 342 327 328 318 294
275 281 182 122 283 132 285 288 294 297 301 306 304 323 307 317 318 317 316 316 319 319 321 324 324 321 324 321 323 320 314 312 314 345 318 321 323 330 322 316 310 307 308 307
257 259 262 263 267 272 273 275 276 278 280 285 287 288 289 291 295 292 305 309 327 333 344 327 328 335 327 325 335 331 328 322 317 313 314 310 303 301 303 301 294 287 282 285
268 260 262 264 273 272 273 276 279 279 280 283 286 290 292 292 295 296 296 296 297 301 301 300 299 302 303 302 299 296 294 292 294 293 291 290 286 280 278 279 280 280 283 285
283 285 300 346 350 354 362 368 379 390 387 389 395 400 404 406 405 410 340 324 305 300 298 291 289 289 289 287 284 284 283 283 283 289 295 297 298 300 298 299 307 307 306 305
279 342 369 375 364 365 376 393 400 401 403 406 406 406 407 407 393 387 370 376 385 389 393 397 400 403 403 407 354 354 353 352 350 348 348 348 347 375 360 357 369 367 369 376
327 361 360 368 394 393 386 378 375 376 379 380 380 380 380 382 385 414 451 464 453 458 463 486 484 480 452 450 447 381 379 377 376 375 373 370 366 360 358 357 356 357 356 356

GFSNGP_2pvu_pres_102.txt.gz
Presure
233 233 226 227 224 223 237 237 236 239 237 225 241 241 245 235 238 245 257 295 270 256 253 261 271 260 253 234 240 213 203 192 198 190 183 185 184 183 183 186 189 186 174 190
234 229 228 232 231 230 223 220 228 227 227 224 233 241 235 229 237 245 243 249 255 242 248 250 268 241 218 217 208 210 208 195 194 201 194 185 180 187 185 185 184 188 190 193
238 231 231 236 231 231 236 237 234 231 223 225 228 229 233 235 254 198 247 261 210 209 232 246 251 258 219 213 216 202 210 203 196 191 185 190 192 184 187 191 191 193 183 186
246 237 242 241 232 230 229 228 229 231 234 228 243 239 225 262 256 275 236 218 202 226 252 233 238 253 216 209 211 211 197 191 196 192 183 189 193 193 198 208 183 183 184 184
244 243 238 235 235 235 234 235 236 237 239 252 243 261 260 269 275 278 235 221 209 189 227 235 227 232 200 205 198 193 195 193 193 194 190 194 187 190 190 200 175 167 192 191
254 249 247 246 245 244 243 243 247 252 257 256 251 253 262 257 287 253 247 220 214 206 206 221 221 226 196 203 198 195 205 197 199 199 198 194 201 196 196 190 185 185 189 191
269 265 262 257 254 253 250 255 258 261 257 256 245 247 250 279 258 249 240 238 223 218 216 220 214 210 213 211 203 199 197 194 190 213 187 193 191 177 194 194 193 194 200 189
256 256 261 263 259 257 254 252 259 252 252 246 245 249 283 264 246 241 241 228 229 228 224 224 219 214 210 206 208 201 191 188 192 190 189 199 189 195 197 181 202 191 193 196
268 271 270 265 262 259 257 261 260 252 246 250 254 243 277 243 245 235 245 235 231 224 216 226 226 221 221 205 205 206 204 189 196 193 194 193 198 194 199 197 201 199 200 192
255 259 271 275 277 276 273 269 265 264 257 252 265 243 275 239 249 235 232 244 233 224 215 224 216 218 213 223 214 195 203 202 205 203 199 197 189 190 182 181 200 199 200 206
261 264 276 279 278 279 278 279 279 280 276 269 255 244 274 243 242 242 234 228 241 226 221 221 219 213 225 220 206 205 218 193 193 192 191 194 199 197 206 202 208 203 204 208
257 258 257 260 270 279 282 279 280 275 270 269 255 255 281 240 239 243 238 234 226 240 230 231 218 222 201 214 220 210 225 219 222 223 221 205 206 213 218 219 230 234 212 199
258 255 257 265 265 273 278 275 274 282 275 271 277 279 269 277 240 242 238 240 231 233 223 242 251 231 221 217 216 212 201 219 225 225 218 216 216 216 215 217 210 211 216 208
267 266 261 261 269 269 280 284 286 295 295 293 276 290 282 287 248 245 244 237 240 238 228 238 234 233 243 241 231 227 220 215 215 215 216 217 216 216 214 212 212 217 226 224
279 271 263 256 261 259 262 264 259 259 267 272 270 302 238 271 295 251 251 244 239 246 235 234 235 227 230 230 227 228 232 231 223 224 221 219 218 222 224 223 224 224 226 226
301 295 283 280 272 266 262 257 260 260 260 259 257 262 277 268 272 299 259 256 250 248 244 241 240 242 240 242 234 230 229 228 237 235 236 237 234 233 235 238 236 236 226 228
306 306 305 300 297 299 295 294 295 301 304 322 288 278 265 274 283 267 302 286 259 252 258 255 248 238 242 239 238 239 240 239 238 238 238 239 236 232 235 239 239 240 245 244
350 346 346 345 338 320 337 331 326 330 318 316 324 329 334 314 267 284 250 289 299 278 263 259 255 255 255 258 263 258 249 242 241 248 250 245 239 238 237 237 238 244 246 246
340 353 333 328 327 334 325 325 333 323 328 336 341 321 326 332 320 296 276 286 265 290 301 290 272 253 264 254 255 257 262 260 257 253 252 250 250 242 239 242 240 236 235 243
294 293 292 290 290 290 290 290 289 289 291 292 292 296 300 303 307 316 317 327 338 287 281 284 294 302 300 291 277 272 267 261 263 260 247 250 251 253 254 252 248 250 260 263
273 272 272 271 272 273 275 277 278 283 286 288 290 292 296 301 305 313 316 319 322 327 336 338 285 285 285 286 286 296 299 301 301 298 296 296 292 289 288 288 291 298 281 300
264 265 269 269 271 179 189 281 288 124 173 232 248 296 301 300 299 297 303 308 313 321 327 329 330 332 334 337 339 321 318 306 306 297 297 294 292 293 291 289 290 291 290 297
255 260 264 266 270 275 282 221 287 283 258 315 304 297 306 322 372 371 378 395 371 320 309 310 314 318 321 324 326 330 334 336 337 338 341 338 341 337 335 340 335 336 336 338
252 256 262 263 275 287 301 315 311 305 300 316 390 408 409 408 409 409 399 411 411 410 397 389 323 311 309 309 306 306 305 303 303 313 315 315 317 318 316 314 315 310 314 307
264 265 269 289 286 289 291 308 332 379 387 395 387 381 401 497 490 487 486 484 483 406 409 396 398 402 406 407 406 406 406 410 345 338 341 340 338 338 334 344 344 338 346 344
261 265 285 285 288 290 327 381 377 389 380 373 472 471 458 445 436 432 433 437 442 444 447 449 450 450 451 451 415 393 390 404 400 400 401 401 407 444 408 423 412 401 398 396
270 281 279 279 303 328 380 378 387 372 423 458 456 431 420 409 409 408 404 402 401 403 407 412 413 412 414 416 421 426 426 426 428 429 432 436 442 447 452 457 459 459 458 456

GFSNGP_2pvu_pres_105.txt.gz
Presure
235 237 237 233 233 236 237 242 242 242 238 237 240 240 239 233 231 234 245 249 253 260 269 269 258 282 280 291 292 276 272 261 241 212 192 206 192 192 188 194 184 183 183 192
235 235 232 225 230 229 235 237 236 233 227 231 230 231 232 235 236 236 246 251 254 267 281 268 274 255 264 267 276 264 265 243 227 204 194 203 192 193 182 182 177 188 184 182
233 236 236 235 233 227 229 230 234 233 231 229 230 233 233 232 229 234 251 240 282 288 235 224 239 248 251 252 257 254 247 230 203 202 203 202 190 185 183 183 183 182 186 186
238 238 240 234 233 229 229 226 227 223 225 232 232 232 233 222 236 233 237 240 238 249 209 211 218 243 255 243 248 237 225 227 206 212 202 201 191 193 191 187 184 192 183 182
239 240 235 230 226 231 236 226 229 231 232 229 209 235 229 219 227 244 229 232 239 260 217 197 210 218 226 245 228 213 215 226 203 206 199 194 194 190 188 194 193 183 189 191
242 239 236 235 231 231 226 222 227 234 221 222 226 219 223 231 233 247 293 243 224 223 214 205 200 203 245 236 232 217 210 204 218 206 183 200 198 192 191 180 182 183 195 196
252 242 239 239 235 234 232 232 231 232 231 230 230 230 233 236 257 281 293 246 231 223 224 223 201 215 232 241 231 240 216 205 205 200 209 191 188 195 199 195 198 197 199 192
263 260 254 252 246 241 237 238 233 233 232 231 234 239 243 249 259 272 284 245 227 236 214 209 206 217 224 217 221 229 203 227 189 203 203 202 195 187 186 195 187 168 187 184
278 273 266 256 250 250 248 245 244 244 245 249 253 250 251 260 254 263 256 250 226 234 218 227 210 223 217 198 211 245 205 186 208 208 194 200 197 205 195 190 193 208 205 200
262 263 266 271 272 269 266 264 264 264 260 255 254 256 253 247 246 253 262 289 239 224 233 220 216 210 201 208 226 211 236 213 203 204 189 193 196 185 185 202 203 188 196 211
270 266 268 264 263 261 260 259 260 260 259 260 259 255 262 245 242 247 255 281 274 245 224 225 224 217 218 215 206 203 205 213 224 218 210 207 204 189 196 200 203 205 201 196
258 250 257 269 269 270 272 276 275 272 270 269 269 270 267 249 240 243 251 273 268 271 242 236 226 223 223 214 216 219 210 223 214 217 218 212 216 210 203 205 192 195 189 197
274 270 267 261 256 260 262 266 274 279 279 278 280 279 278 278 259 241 261 270 261 257 261 248 230 228 223 220 219 223 235 217 225 215 211 210 208 214 205 204 201 192 203 207
290 278 272 269 267 263 261 270 269 269 273 279 288 289 288 286 287 279 262 254 272 258 250 238 259 250 240 233 227 238 231 239 229 227 222 215 225 225 215 211 210 203 201 198
294 284 275 268 264 261 262 259 261 266 269 271 282 285 286 286 287 282 265 269 255 268 259 246 252 246 255 243 239 233 225 225 227 228 222 219 212 219 223 225 229 225 218 215
303 303 295 290 281 273 267 267 264 261 265 268 267 279 283 292 302 308 304 286 282 259 257 261 258 256 251 239 251 248 243 236 227 228 225 237 237 234 233 231 224 214 221 228
321 311 299 300 300 294 287 283 277 270 264 264 268 267 267 269 268 269 287 290 303 312 270 289 270 256 259 256 260 251 251 253 241 240 237 238 233 225 226 226 226 227 227 229
357 365 329 310 305 300 301 302 303 299 297 297 298 300 293 294 294 278 272 272 267 270 289 295 289 261 251 248 260 261 262 258 254 256 252 243 241 242 240 239 232 236 234 240
344 340 342 367 334 343 336 341 339 340 343 337 331 329 335 338 329 337 338 344 309 293 290 281 277 262 274 302 280 267 263 262 259 260 263 265 264 257 252 250 250 251 250 251
301 301 297 295 293 292 292 296 296 297 299 300 302 304 306 308 311 315 319 323 329 330 333 337 321 306 303 298 281 303 312 283 273 271 266 268 267 268 269 264 261 262 261 259
279 279 277 277 276 276 276 276 276 277 279 283 287 291 289 288 291 299 303 308 312 315 318 322 329 334 338 338 311 306 304 285 307 308 305 286 271 274 274 274 274 272 273 271
266 166 263 205 194 263 265 269 272 284 291 313 141 323 325 252 328 331 331 317 336 341 342 344 328 331 325 324 326 331 339 319 306 299 286 285 294 302 310 312 308 307 304 303
263 263 265 265 280 270 281 295 291 289 291 298 303 304 360 373 375 338 337 337 338 338 339 342 344 343 340 336 320 318 320 323 328 334 337 342 345 346 345 329 326 300 296 293
248 252 253 283 282 284 281 279 281 288 294 292 399 401 399 400 400 400 401 401 400 400 401 420 484 402 401 402 406 409 410 409 396 344 320 321 326 329 330 331 333 334 334 334
271 266 269 275 279 290 307 292 288 288 308 402 395 384 378 396 478 467 465 452 445 439 436 437 441 446 457 462 466 468 466 411 399 398 400 401 402 405 335 329 315 326 325 311
265 269 274 277 310 302 292 280 276 363 400 388 376 383 465 452 458 450 434 426 420 416 414 413 411 411 414 420 428 433 436 439 441 444 447 451 454 455 458 463 429 397 437 485
264 261 271 296 313 290 302 321 329 399 389 374 446 459 432 438 445 433 424 417 414 405 397 389 389 391 392 395 395 398 403 407 409 411 417 420 420 420 421 424 427 427 427 431

GFSNGP_2pvu_pres_111.txt.gz
Presure
254 255 246 239 238 239 241 229 231 234 225 226 244 233 236 233 240 237 232 238 240 248 253 251 222 221 223 216 207 218 213 215 223 227 240 249 245 233 247 242 257 246 241 254
251 245 239 243 242 250 243 238 235 231 227 233 230 242 240 243 234 241 241 238 235 231 236 236 233 229 227 226 219 216 230 249 250 247 233 211 245 238 248 260 248 229 267 264
245 242 237 242 247 241 244 244 235 238 226 223 226 228 219 225 226 232 230 227 224 229 230 229 232 243 244 242 245 250 257 271 268 260 262 255 234 229 221 226 232 256 253 238
243 236 240 241 239 238 233 232 230 227 227 225 223 226 229 228 225 228 230 226 227 229 243 235 233 235 238 247 250 255 246 263 271 267 273 286 241 236 230 225 249 252 246 227
241 241 241 237 239 239 238 239 242 240 237 234 230 220 222 223 223 227 227 240 233 235 229 225 226 235 240 244 250 229 251 238 246 270 281 257 240 237 225 250 240 241 236 220
243 242 243 242 240 234 233 235 233 232 232 225 222 224 228 232 234 242 235 231 225 225 223 226 230 231 236 247 219 221 226 233 235 253 264 249 238 237 247 235 239 235 231 188
237 248 243 239 234 232 237 233 232 233 233 230 229 230 231 232 237 235 231 223 224 226 225 229 239 226 249 214 232 225 206 215 225 228 240 244 237 234 231 224 222 194 223 215
241 237 240 240 233 233 238 232 233 235 234 230 229 226 229 226 233 230 226 226 223 222 231 239 239 218 247 214 216 226 224 215 208 228 237 233 233 228 218 212 216 225 202 209
247 234 231 238 234 236 231 231 230 237 234 230 228 230 229 225 224 225 225 227 222 227 228 224 237 213 249 209 210 224 232 215 215 216 205 227 232 211 205 211 191 206 193 201
251 253 244 241 235 234 235 230 225 224 225 228 232 234 231 230 223 224 225 223 223 227 234 237 235 222 216 225 212 215 226 226 226 224 209 207 212 221 205 194 215 207 196 220
259 255 250 254 248 244 236 236 234 233 233 231 230 234 236 232 226 226 230 221 220 226 231 238 240 251 221 251 223 218 220 230 232 221 224 218 236 214 200 199 211 203 213 189
271 270 271 259 258 257 252 246 239 234 234 234 234 236 236 233 232 231 231 232 232 234 238 242 249 244 234 262 254 223 224 217 229 222 224 220 225 237 214 213 200 202 210 203
281 285 289 282 273 271 267 262 253 249 248 245 244 240 239 240 243 244 244 243 245 247 253 253 251 252 264 286 254 244 230 220 216 236 225 211 231 226 226 222 229 212 211 203
273 274 279 284 282 279 276 274 274 276 283 273 270 274 274 274 273 271 271 272 270 271 272 273 277 257 252 285 247 288 238 236 227 224 236 223 225 228 249 225 228 221 217 218
273 277 286 284 277 281 276 284 298 300 283 271 272 276 277 278 280 279 279 278 278 276 274 273 272 267 265 256 241 275 258 234 229 236 229 232 220 227 235 226 224 230 217 216
295 289 292 303 306 302 294 301 312 313 305 286 277 262 259 259 264 270 273 271 268 268 273 276 280 298 305 294 280 244 293 249 237 241 237 232 230 234 232 227 224 240 231 237
345 339 337 335 344 319 315 349 317 320 318 314 309 304 297 292 283 281 280 278 278 271 270 274 275 276 278 281 294 271 245 283 251 237 226 242 239 234 226 232 230 228 227 209
324 331 334 351 367 372 379 337 330 310 311 313 315 314 315 312 308 307 307 307 309 313 316 315 301 297 294 286 285 293 281 297 338 259 249 242 228 239 249 239 235 241 242 239
335 326 329 327 318 315 314 311 308 307 304 300 301 302 304 307 308 309 311 315 317 320 324 330 334 344 349 357 356 369 341 294 301 316 327 291 254 257 250 246 229 234 245 236
289 287 284 282 279 279 279 278 278 278 278 278 278 278 278 280 283 287 289 291 295 298 301 307 308 311 314 318 323 329 337 343 349 356 296 308 319 324 258 255 240 237 235 229
274 269 264 264 264 265 267 268 271 271 274 279 280 282 289 276 277 278 305 319 330 338 345 348 350 353 351 345 342 341 314 316 327 332 337 345 349 311 307 320 327 254 263 265
267 262 256 262 265 263 260 264 275 270 278 282 299 306 317 320 301 304 310 348 363 368 430 429 412 389 386 384 385 387 387 388 384 381 366 336 338 342 347 349 329 316 319 327
244 254 263 267 271 267 263 266 277 289 285 293 301 307 316 306 309 351 429 414 417 474 495 488 479 475 470 468 468 468 465 465 465 445 447 437 418 422 399 348 347 350 353 352
259 261 250 124 246 268 257 261 283 284 282 289 305 307 310 329 361 423 403 485 463 446 436 432 425 423 424 443 444 441 435 435 436 436 436 435 437 443 449 458 472 482 474 414
247 252 252 251 253 254 256 268 265 279 286 299 301 304 316 344 372 402 404 447 419 412 403 389 383 379 378 381 385 420 426 424 421 421 421 418 418 417 419 423 432 443 453 462
250 241 240 252 254 252 255 264 266 281 289 305 307 316 322 357 400 397 405 438 410 394 394 385 374 372 380 405 428 432 424 425 407 414 411 404 401 399 400 403 403 404 411 424
246 240 245 248 254 260 265 273 274 282 290 305 311 318 327 359 395 394 403 449 416 396 385 388 383 372 368 377 447 443 434 433 428 417 418 418 405 404 431 424 415 402 392 391

GFSNGP_2pvu_pres_114.txt.gz
Presure
269 269 261 252 254 246 234 238 241 242 244 241 229 229 230 221 225 221 229 232 236 235 257 257 232 215 212 215 226 231 228 226 217 223 222 227 221 201 199 202 202 204 201 217
268 257 250 246 241 242 233 236 247 238 250 232 234 238 228 237 232 225 210 234 231 234 226 230 234 238 239 246 252 239 233 224 222 224 224 224 222 211 220 206 235 217 215 214
261 251 253 242 240 236 232 236 239 239 249 235 231 232 233 235 236 237 234 224 225 223 227 231 223 225 226 227 242 251 243 228 224 231 231 221 223 222 226 235 233 164 229 227
261 246 245 245 240 233 248 238 234 233 225 240 244 227 218 222 224 223 223 223 225 227 237 246 245 246 248 238 234 235 236 232 227 234 238 244 253 262 270 266 254 243 235 241
258 249 249 256 250 243 231 239 236 227 234 232 231 233 231 227 220 238 237 234 235 236 243 237 232 233 226 226 230 228 229 229 235 249 263 262 260 244 233 232 236 210 229 229
258 257 247 249 236 244 240 230 236 230 225 222 228 229 233 227 227 223 224 224 235 226 227 226 228 234 238 232 227 226 233 242 249 237 237 247 232 272 195 231 237 228 188 236
251 251 254 249 241 248 244 235 239 244 241 233 232 235 233 232 233 228 230 231 230 227 225 228 249 227 232 223 224 225 229 242 229 234 234 235 238 229 275 220 217 216 218 227
244 248 250 254 241 242 239 236 235 235 232 231 228 224 224 225 227 230 231 228 225 227 234 235 236 232 228 222 225 225 231 227 230 227 230 229 226 248 253 219 213 214 197 223
249 260 244 242 247 238 232 238 235 237 237 239 240 241 241 239 237 234 226 225 229 235 237 240 231 232 228 227 226 227 224 224 236 213 211 214 241 239 241 221 223 214 204 200
252 251 250 250 247 236 239 239 237 233 235 236 235 234 235 236 236 235 234 234 236 232 239 234 230 233 229 223 232 238 239 222 233 213 228 224 222 229 212 220 212 235 214 203
248 251 244 248 244 233 246 240 238 238 232 233 240 235 235 238 238 239 236 233 233 232 230 228 228 230 233 229 227 217 239 226 234 215 215 217 228 206 229 229 230 228 241 223
258 261 255 254 247 247 245 236 234 235 223 237 236 204 203 228 232 242 233 234 237 237 236 231 227 227 229 230 229 233 216 220 242 223 216 224 214 222 217 228 223 233 219 227
268 260 258 256 258 257 253 255 249 247 247 245 243 235 233 233 234 234 237 239 238 240 244 242 233 230 231 234 237 238 240 232 238 240 224 224 224 224 212 232 212 217 214 223
290 283 280 271 266 259 256 256 251 250 254 257 257 243 248 245 241 233 239 239 241 241 239 238 237 237 238 239 241 244 246 249 254 263 236 238 226 225 224 224 216 225 208 212
284 286 284 285 288 286 288 287 288 288 289 279 283 273 247 248 266 265 263 263 264 263 261 259 261 262 263 264 269 274 278 287 287 285 275 257 239 242 238 236 231 230 241 238
285 282 283 284 284 283 284 284 289 293 304 319 309 314 309 323 332 290 306 294 282 278 280 284 287 290 293 295 295 293 293 294 295 295 303 300 289 300 257 246 241 235 238 235
351 307 301 298 299 306 313 348 384 377 351 351 345 348 331 318 314 313 314 316 316 316 283 280 277 277 282 288 290 288 287 288 288 285 297 299 330 319 282 279 245 238 241 242
333 335 339 343 341 354 350 347 341 335 328 323 319 314 309 306 303 305 307 310 313 316 322 326 332 317 347 355 333 328 342 312 303 293 288 294 299 293 315 304 257 308 265 253
330 339 327 316 307 302 296 291 288 288 287 285 286 286 286 286 287 289 290 291 294 298 302 304 308 312 317 322 327 332 335 339 346 351 357 365 354 292 293 299 313 262 309 302
291 287 284 280 277 277 275 273 271 271 270 268 268 271 266 267 268 295 299 314 328 325 326 330 336 345 348 346 346 347 343 348 334 317 320 326 335 343 347 352 329 300 262 319
262 262 265 268 264 263 261 259 259 256 252 255 254 282 287 297 304 308 313 312 318 332 418 446 441 436 442 504 505 508 442 439 435 440 379 364 363 323 321 328 333 337 328 312
261 258 260 251 259 271 276 276 269 266 262 268 267 268 280 283 298 306 313 196 294 398 429 420 459 461 445 442 440 446 459 468 472 475 479 482 466 450 398 388 386 353 346 338
242 245 259 257 255 259 256 258 262 257 265 268 270 272 275 279 297 310 316 336 370 415 415 412 467 439 420 412 412 405 402 406 418 427 450 450 449 451 453 455 457 456 459 461
245 256 255 253 254 251 236 253 258 256 258 273 275 279 280 283 303 312 325 339 382 413 403 406 462 442 417 402 398 394 384 382 382 384 386 388 420 435 435 435 435 436 435 435
253 252 251 248 244 249 248 249 253 256 259 265 271 276 281 286 308 316 328 346 395 412 392 401 450 449 422 403 394 394 391 382 380 378 407 444 437 440 423 416 422 421 421 419
249 242 246 249 249 251 247 252 251 253 253 266 267 275 282 293 308 316 326 350 399 402 384 408 442 445 427 409 398 390 390 387 380 373 379 444 443 441 438 432 418 417 414 408
244 240 245 249 249 250 250 255 257 258 257 270 276 278 289 301 309 320 332 365 405 383 392 422 446 438 426 409 399 395 388 387 383 373 366 388 438 436 431 432 431 423 418 429